Weather in Uglovoye

Russia / Amur Oblast     51°56′19″N   129°21′50″E
temp.,
°C
wind,
m/s
gust,
m/s
humid.,
%
clouds,
%
prec.,
mm/h
press.,
hPa
HPBL,
m
13 may, thu
thu1300:00+9e51082100 0.2 1000554
03:00+8e51190100 2.2 999613
06:00+8e51092100 1.8 999477
09:00+8e4890100 2.7 1000625
12:00+8ese4686100 0.4 1001541
15:00+9nne2380100 0.7 1001533
18:00+8nne2390100 0.2 1004247
21:00+8wnw2290100 0.2 100663
14 may, fri
fri1400:00+7w349499 0.0 100792
03:00+6sw1194100 0.0 100726
06:00+7sse2291100 0.0 100883
09:00+10se5879100 0.0 1007565
12:00+12se71366100 0.0 1003841
15:00+11s71281100 1.6 10021480
18:00+11sw698176 2.0 1000643
21:00+5wsw48896 2.1 1001290
15 may, sat
sat1500:00+6ssw479286 0.0 1001316
03:00+5ssw51091100 0.0 999335
06:00+6sw5991100 0.1 998655
09:00+6wsw6993100 0.6 998964
12:00+6w71192100 2.1 9971154
15:00+7wnw6987100 2.5 9981132
18:00+8nnw598233 0.1 1000795
21:00+7wsw2286100 0.2 100131
16 may, sun
sun1600:00+8wnw51086100 0.5 1000475
03:00+6wnw51187100 0.5 1000380
06:00+6wnw388715 0.0 1001281
09:00+10wnw356552 0.0 1001931
12:00+14wnw454744 0.0 10001667
15:00+16wnw453899 0.0 9992234
18:00+16nnw014898 0.0 99939
21:00+11se336398 0.0 100044
17 may, mon
mon1700:00+9s35733 0.0 100081
03:00+8ssw33735 0.0 99933
06:00+9s366866 0.0 998152
09:00+15wsw58500 0.1 997976
12:00+19wnw714292 0.0 9972758
15:00+20w81127100 0.0 9973309
18:00+17wnw811296 0.0 9981963
21:00+12nne365496 0.0 1001119